Wind_Speed
23 21 19 16 14 11 10 11 10 10 8 9 11 13 12 10 10 10 11 14 16 17 18 19 22 24 25 25 24 24 27 33 38 36 35 35 34 34 33 34 35 34 37 40 41 40 38 36 36 37 35 33 32 34 38 40 43 43 42 38 32 28 25 25 28 30 29 28 26 24 23 21 21 21 22 22 23 24 23 21 22 21 21 22 22 19 17 17
22 20 17 14 12 10 10 10 10 9 7 7 9 9 8 8 8 9 11 14 18 19 18 18 21 23 22 21 21 22 22 23 29 32 32 32 31 33 33 33 34 34 37 41 42 40 37 35 35 36 33 31 31 34 38 41 43 42 39 35 30 26 25 27 30 29 28 27 25 24 22 20 20 21 21 22 23 24 21 21 24 21 22 24 21 17 16 18
19 17 15 13 11 9 10 10 10 9 5 5 8 8 10 10 11 11 11 14 18 22 21 19 20 20 17 18 20 20 18 14 18 26 29 29 30 32 33 32 33 34 38 42 41 39 37 35 37 37 32 30 32 35 39 40 41 40 37 33 28 27 27 28 28 28 27 26 25 23 22 21 21 21 20 21 22 21 20 24 26 22 23 23 19 16 16 19
17 15 12 11 10 9 8 9 10 7 3 5 9 11 13 13 13 13 13 14 17 21 22 20 21 17 11 14 18 17 14 9 11 20 25 27 29 32 32 32 33 34 38 41 40 39 36 35 38 35 31 30 33 37 39 38 39 37 34 31 28 28 28 27 28 28 27 25 24 22 21 21 22 21 19 21 20 19 23 28 26 22 23 21 17 16 18 20
14 13 11 11 10 8 7 8 9 6 4 6 9 12 13 13 14 13 13 15 16 19 21 19 20 18 11 11 14 13 10 9 11 17 21 23 27 30 31 32 32 34 38 40 41 38 33 34 36 33 30 32 34 38 38 37 37 33 31 31 29 29 27 27 29 28 27 25 23 21 20 20 21 19 19 19 17 21 29 30 24 21 22 20 17 17 19 20
12 11 10 11 10 8 7 8 9 8 8 9 10 12 13 13 15 12 13 17 17 17 20 18 19 18 12 9 9 8 7 8 11 15 17 20 23 27 30 31 31 34 37 41 42 35 31 35 35 33 32 34 36 38 38 37 35 33 32 31 29 28 27 27 28 27 25 24 23 21 20 20 20 19 18 16 15 25 33 28 23 21 22 20 18 19 20 19
10 10 10 10 9 8 7 7 8 9 11 11 12 14 14 14 14 12 12 16 17 16 18 18 17 16 11 8 7 6 6 6 9 12 15 18 20 24 27 28 30 34 39 43 40 32 32 36 35 34 35 36 38 38 38 36 35 34 32 30 28 27 27 27 26 24 23 23 23 21 20 20 21 19 15 15 20 30 33 27 23 22 21 20 19 21 20 18
9 9 10 10 9 8 7 7 8 11 12 12 14 14 14 14 13 13 12 14 16 16 18 19 16 14 11 9 8 8 9 10 11 12 14 16 18 23 26 27 31 36 41 41 34 31 36 38 36 36 36 37 38 38 38 36 35 32 30 29 28 27 26 26 24 24 24 24 24 22 20 21 21 17 13 18 27 32 33 26 22 22 21 21 22 22 20 19
9 8 9 10 9 8 8 7 9 11 13 13 13 13 13 13 11 13 13 13 14 14 17 20 17 14 12 11 10 11 11 9 14 14 16 16 17 20 23 30 34 35 37 34 31 35 40 38 36 36 37 38 38 38 37 35 32 29 29 29 28 27 26 26 25 26 26 26 25 23 21 22 21 16 15 25 32 32 30 24 19 21 21 22 23 22 21 20
9 7 8 9 9 9 8 8 9 11 12 12 12 12 12 12 10 12 14 14 13 10 11 17 19 15 13 14 13 12 10 5 13 15 16 16 15 16 20 30 32 31 31 29 34 40 40 38 37 37 38 38 38 36 34 32 30 28 28 28 28 28 27 27 27 28 27 25 24 23 22 23 20 17 21 31 32 28 25 21 19 20 21 23 23 22 21 21
9 8 8 9 9 9 8 8 9 11 12 11 10 9 11 12 10 12 13 13 13 10 10 14 17 15 13 14 14 13 8 3 10 11 13 13 13 15 19 26 28 27 28 31 38 41 39 38 37 37 37 36 36 34 32 30 29 28 28 28 28 28 27 27 28 28 26 25 25 24 23 21 19 19 25 31 29 26 24 22 22 21 22 23 22 22 22 22
9 10 10 9 9 8 7 8 10 11 11 10 9 8 10 10 10 11 11 11 11 11 11 13 13 12 12 12 11 10 5 6 8 7 9 11 13 16 18 23 25 26 29 35 40 40 37 37 36 35 34 34 33 32 30 29 28 28 28 28 28 28 27 28 28 27 26 26 26 26 23 20 21 23 27 29 28 26 24 24 24 22 22 23 22 23 23 23
9 10 10 9 8 6 6 8 9 10 10 10 9 9 9 8 9 11 11 9 9 10 12 13 10 8 9 10 7 4 5 6 7 7 9 13 14 16 16 19 24 26 31 36 38 37 35 34 33 33 32 31 31 30 28 27 27 28 29 28 28 28 27 27 28 27 27 27 27 27 23 20 24 27 28 30 28 26 26 26 25 23 23 24 24 23 23 24
8 9 9 8 8 6 6 9 10 10 11 11 10 9 8 7 9 11 12 10 7 10 13 12 8 6 7 7 5 2 8 7 8 10 11 15 16 16 16 18 23 26 29 32 33 33 32 32 31 31 30 30 30 29 28 28 29 29 29 28 27 27 27 27 28 28 29 29 28 28 23 19 24 27 29 32 31 29 28 28 27 25 24 25 25 24 24 25
8 8 7 7 8 8 9 11 11 12 11 11 11 9 6 6 9 12 13 11 7 9 12 11 7 4 3 4 4 3 10 10 11 13 13 15 16 17 16 18 22 25 26 27 29 30 30 30 30 30 30 30 29 29 28 29 30 30 29 28 27 27 27 28 29 30 30 30 29 28 24 21 23 27 29 30 31 30 28 27 27 26 25 25 25 25 25 25
7 7 7 7 8 10 11 13 13 13 12 12 11 8 6 7 10 12 14 12 8 7 9 10 8 4 1 3 3 5 12 13 12 14 15 16 16 17 18 19 21 23 24 25 26 27 28 29 29 29 30 29 29 29 29 30 30 29 28 28 28 28 28 29 30 31 31 30 30 29 26 23 25 28 30 30 30 30 27 26 28 27 26 25 25 25 25 26
7 7 7 7 8 10 12 13 13 13 12 11 10 8 8 10 12 13 14 13 9 7 7 8 8 4 0 2 3 8 12 13 12 14 16 18 17 18 20 22 22 22 24 25 26 27 27 28 29 29 29 29 29 29 30 30 29 29 28 28 29 28 29 30 31 31 31 31 30 30 28 25 26 29 31 32 33 30 26 26 28 29 29 28 28 28 27 28
8 7 7 8 8 10 11 13 12 12 11 10 9 9 9 11 13 14 14 11 8 6 7 7 8 5 1 3 2 9 11 12 12 14 18 20 20 21 22 25 25 24 25 25 26 27 27 28 28 29 30 30 30 30 29 29 29 29 28 29 29 29 29 31 32 31 32 32 32 32 31 27 27 29 31 34 36 33 29 29 30 31 32 32 33 31 30 31
9 8 7 8 8 9 10 11 11 11 10 9 9 9 9 11 12 13 12 9 7 7 8 8 7 5 3 4 1 7 11 10 10 14 19 22 22 24 25 26 26 25 25 25 26 27 28 28 29 31 31 30 29 29 29 28 29 29 29 29 29 29 30 32 32 32 32 33 33 34 33 29 27 28 32 36 38 36 33 32 33 33 34 35 36 35 33 33
10 10 9 9 9 9 9 10 10 10 10 9 9 8 9 10 11 12 10 8 7 7 8 8 7 6 3 4 2 4 10 11 10 12 18 22 23 24 26 27 26 26 26 26 27 28 29 29 30 31 29 29 29 29 29 29 29 30 30 30 30 30 31 32 32 32 34 34 34 35 34 31 28 28 31 36 38 37 36 35 35 35 37 37 37 37 36 36
11 11 10 10 9 10 10 10 10 9 9 9 8 8 8 9 10 10 9 7 6 7 8 8 7 6 3 2 2 2 8 11 11 12 15 20 23 24 25 26 27 27 27 28 28 29 29 29 30 29 28 29 29 29 29 29 30 30 30 30 30 30 31 32 32 33 34 35 35 36 36 32 30 30 31 35 37 37 38 38 38 38 38 38 38 38 38 38
12 12 11 10 10 10 11 11 11 9 9 9 8 8 7 8 9 9 8 7 6 7 7 8 7 6 4 1 0 1 5 8 11 12 13 17 20 23 25 26 28 28 28 29 29 28 28 29 29 28 29 30 29 29 30 30 31 31 31 30 30 31 32 32 33 34 36 36 36 37 37 34 32 32 32 34 37 38 40 40 41 41 39 39 38 38 39 40
13 13 12 11 10 11 11 12 12 10 10 10 9 8 7 7 8 8 7 6 6 6 6 7 6 6 5 2 2 1 3 6 9 10 12 14 16 19 22 24 26 27 27 28 27 27 28 29 29 28 29 30 30 30 30 31 31 31 30 30 30 32 33 33 34 35 36 38 37 38 39 36 33 34 33 34 37 38 39 40 41 41 40 39 38 38 40 40
13 13 13 12 11 11 11 13 13 11 10 10 9 7 6 6 6 6 6 5 4 4 4 5 5 4 3 2 3 3 3 4 7 9 10 12 14 16 18 20 21 22 23 24 25 25 26 27 27 27 28 29 30 30 31 31 31 31 31 31 32 33 34 34 35 37 37 38 39 40 42 39 35 35 32 31 35 36 37 39 40 41 40 40 40 39 40 40
12 13 13 13 12 11 11 12 12 11 11 9 8 7 5 4 4 5 6 5 4 3 2 2 3 2 2 2 3 4 5 4 6 8 10 11 13 15 16 17 18 19 21 21 22 23 24 25 26 27 28 29 30 30 31 32 31 31 32 32 33 34 34 35 36 38 39 39 40 41 44 42 35 32 29 28 32 34 35 37 38 41 41 40 41 40 39 39
12 12 12 13 13 12 11 10 11 11 11 9 7 6 5 4 4 4 5 5 4 3 2 1 1 1 1 1 2 3 5 5 5 7 9 10 12 14 16 17 18 19 20 20 21 22 24 25 26 28 28 29 30 30 31 32 32 32 32 33 33 34 35 36 37 39 40 40 40 40 44 43 35 28 26 27 30 32 34 37 39 40 41 40 40 40 39 38
12 11 12 12 12 13 12 11 10 11 11 10 8 7 6 5 5 6 6 6 5 4 3 2 2 3 2 2 3 3 4 4 5 6 8 9 10 12 15 17 18 20 20 22 23 23 25 26 27 28 28 29 30 31 32 33 33 32 32 33 34 36 37 38 39 39 40 40 39 38 39 42 37 27 24 26 28 30 33 36 39 39 40 40 39 39 37 35
14 12 11 11 11 12 13 13 12 11 11 10 9 8 8 8 8 8 8 7 6 5 5 3 2 3 2 2 3 3 4 4 5 6 7 8 10 11 13 16 17 18 20 23 24 25 27 28 28 29 30 31 31 32 33 33 33 32 32 34 35 36 37 37 38 38 38 38 37 36 36 40 38 26 20 23 25 28 31 34 37 37 38 38 37 36 34 31
14 14 12 11 10 11 12 13 13 11 11 11 11 10 10 11 11 11 10 9 8 7 6 5 4 3 3 3 3 4 4 4 5 7 8 9 10 11 13 15 16 18 19 21 23 24 27 28 29 30 30 31 31 32 32 33 33 32 32 33 33 34 35 35 35 35 37 37 35 34 34 37 36 24 18 20 22 25 30 32 34 35 35 36 35 34 33 31
15 15 14 12 10 10 11 12 13 12 11 12 12 12 12 12 12 12 11 11 10 10 9 8 7 6 5 4 4 4 4 4 5 6 8 10 11 13 14 15 17 18 19 20 21 23 25 27 28 29 29 29 30 30 30 30 30 29 30 30 30 32 32 32 32 32 35 35 32 32 32 34 33 22 16 20 21 24 28 30 33 33 33 34 33 33 33 31
16 16 16 15 13 11 10 11 12 12 11 11 11 12 13 13 12 12 13 12 12 11 11 9 9 8 7 6 6 6 5 5 5 6 7 9 11 13 15 17 18 19 20 21 22 23 24 25 25 26 27 27 27 27 27 27 27 28 28 28 29 30 30 30 30 31 33 33 31 31 31 32 31 21 17 21 23 25 27 29 32 32 33 33 33 33 32 31
19 18 18 18 16 14 12 11 11 12 12 11 11 11 11 11 11 12 14 14 13 13 12 11 11 10 9 8 7 7 6 6 5 5 6 7 9 11 13 15 18 20 21 22 23 24 24 24 24 25 25 25 25 25 25 26 27 28 27 27 28 29 30 30 30 30 31 31 30 30 30 31 27 20 19 22 24 27 29 30 31 31 33 33 34 33 31 30
21 20 20 20 19 18 15 13 12 12 11 12 12 11 11 10 10 13 14 13 14 14 14 13 12 11 11 10 8 8 7 6 6 5 5 6 7 8 10 12 15 18 21 23 25 25 25 25 25 26 26 26 26 26 26 27 27 27 27 27 28 28 30 30 29 29 29 29 28 28 29 29 23 18 19 21 24 28 31 32 30 30 31 32 33 33 31 29
22 22 21 21 22 21 20 17 15 14 13 12 12 12 11 10 12 14 13 12 12 13 14 14 14 13 12 11 10 10 9 8 7 7 6 6 6 7 7 9 10 13 16 19 21 23 23 24 25 25 26 26 26 26 26 26 26 26 26 27 27 27 29 30 29 28 28 27 27 26 27 25 18 15 18 21 25 29 31 32 31 29 30 31 32 32 30 29
25 24 23 23 23 23 23 21 19 17 15 14 13 11 10 12 15 14 12 11 12 13 13 13 14 14 14 13 12 12 11 11 10 9 9 8 7 7 7 7 7 9 11 12 14 16 17 19 21 22 22 23 24 24 24 25 25 25 25 25 25 26 28 29 28 27 27 27 26 24 24 21 16 15 18 22 26 29 30 31 30 28 28 30 31 31 30 29
27 26 25 25 24 25 25 24 22 21 18 17 15 10 11 15 16 14 13 13 12 13 13 12 13 14 14 15 14 14 13 13 12 12 11 11 10 9 9 8 8 9 10 11 12 12 13 15 17 17 18 19 19 20 21 22 22 21 22 22 23 25 26 27 27 26 26 27 25 23 21 17 15 15 19 25 26 26 28 29 27 26 28 30 31 31 30 29
30 29 27 26 26 26 26 26 26 24 22 20 16 11 13 17 17 16 15 14 14 14 14 14 14 14 14 15 15 16 15 15 15 13 13 12 11 11 12 11 11 11 11 11 12 12 13 14 15 16 16 16 17 18 18 19 19 19 20 22 23 25 25 26 27 26 26 27 25 23 19 14 12 15 22 26 25 25 27 27 26 26 29 31 31 31 30 30
33 32 30 28 27 27 28 28 28 27 26 24 17 14 16 18 19 20 18 16 16 15 14 15 15 15 16 16 16 16 16 17 17 16 15 14 13 13 14 13 14 13 13 13 13 14 14 14 15 16 16 16 17 18 18 19 20 20 20 22 23 24 24 25 27 27 27 28 26 22 17 10 9 14 23 27 24 24 25 25 26 27 28 30 30 30 30 29
36 35 33 31 30 30 29 30 30 29 28 24 18 17 19 19 21 22 20 19 17 16 15 15 16 16 16 17 16 16 16 17 18 18 17 16 16 16 16 16 16 16 16 16 15 15 16 16 16 16 17 17 18 19 19 20 22 21 21 22 23 25 26 26 28 27 28 29 28 25 16 8 10 20 26 27 24 22 22 21 22 24 25 26 27 27 27 27
39 38 35 33 33 33 32 32 31 30 28 24 21 21 21 21 23 24 23 21 20 18 17 16 17 17 16 17 18 17 17 17 18 19 18 18 18 19 19 19 19 19 19 18 18 18 19 18 17 17 18 18 18 20 21 21 23 22 22 23 24 26 27 28 29 28 30 31 30 28 18 9 16 24 23 23 21 19 18 18 19 21 23 25 26 27 27 26
41 40 37 36 37 36 35 35 33 31 28 25 24 24 23 24 25 26 26 24 22 20 18 18 18 18 18 18 19 19 19 19 19 20 19 19 21 22 22 22 23 23 23 22 22 22 22 21 20 18 19 20 21 22 22 22 23 23 24 24 26 28 29 31 32 30 32 33 31 30 22 13 17 20 17 17 18 15 15 17 20 23 25 28 29 30 29 28
43 42 40 40 41 40 39 39 36 32 29 26 25 25 26 26 27 29 29 27 25 24 22 20 19 19 19 20 20 21 21 20 21 21 20 21 23 25 24 25 25 26 26 25 25 25 25 25 23 21 22 23 23 24 24 24 25 26 27 26 28 31 32 34 35 33 34 33 30 30 23 13 12 13 11 13 14 14 16 20 23 26 28 31 33 34 34 33
45 45 44 44 45 44 44 42 37 33 30 27 27 28 28 29 30 31 32 30 28 27 25 24 22 21 20 21 22 22 23 23 22 22 22 22 23 26 26 27 28 28 28 28 27 28 29 28 26 25 26 26 26 26 27 27 28 30 30 29 32 33 34 37 37 36 36 31 28 29 21 9 9 12 11 13 14 16 20 23 27 30 31 35 36 36 37 37
48 48 47 47 47 47 47 44 38 35 33 32 31 31 31 32 31 32 33 33 31 29 28 26 25 25 23 23 24 24 25 25 23 23 23 22 24 26 28 28 29 30 30 30 29 30 31 30 28 27 27 27 27 27 27 28 30 32 31 32 33 34 36 37 36 38 36 26 25 30 19 4 10 15 14 16 18 20 23 28 33 35 35 37 39 39 40 41
51 51 51 50 50 50 49 45 41 39 37 36 35 34 34 34 33 33 34 35 34 32 31 28 28 27 27 27 27 27 27 27 27 26 24 23 24 27 28 29 30 30 31 31 31 31 32 31 29 28 28 27 25 25 27 29 32 33 32 32 34 35 36 36 37 38 33 24 26 31 20 9 17 19 19 19 21 24 28 33 37 38 39 40 42 43 44 45
53 54 53 53 52 51 50 47 45 43 40 38 37 37 37 36 34 34 36 36 36 35 34 32 30 29 28 28 29 29 29 30 30 29 27 26 27 28 29 31 31 31 32 32 32 33 34 32 29 29 29 27 25 27 30 31 32 34 33 33 35 36 36 37 38 36 31 30 33 30 25 21 22 22 22 22 24 29 33 37 38 40 42 43 44 45 46 46
56 56 55 53 53 53 52 50 48 45 42 41 41 40 39 38 37 38 38 37 36 37 37 35 33 30 28 27 29 30 31 31 31 31 30 31 31 32 33 33 33 33 33 33 33 35 35 33 30 31 31 28 28 31 33 33 35 35 35 36 36 36 37 38 38 34 32 37 38 29 28 34 31 23 23 24 27 33 37 38 38 39 41 42 43 44 43 43
59 58 57 56 56 56 54 51 49 47 46 46 46 44 43 42 42 41 39 39 39 40 40 39 35 32 30 29 31 32 32 31 30 28 29 32 34 36 37 36 37 37 36 37 37 38 39 36 33 35 35 31 32 35 36 36 38 38 38 38 36 37 39 38 37 36 36 40 39 32 33 41 37 27 23 24 28 34 35 35 37 37 36 37 39 40 40 39
63 61 60 59 58 57 55 52 51 51 50 50 49 48 47 45 43 42 41 42 42 41 42 42 37 34 34 35 35 37 35 32 29 28 31 35 36 36 36 36 37 38 38 39 39 40 42 40 37 40 40 37 36 39 40 41 42 43 42 40 39 39 41 40 38 37 39 42 40 37 41 42 32 24 22 23 26 29 30 32 34 32 31 33 36 37 36 36
65 64 62 61 60 59 58 56 55 55 54 53 53 52 50 48 45 43 42 43 43 42 44 44 39 38 41 41 42 43 38 33 32 34 37 40 39 37 37 37 37 37 37 37 38 39 41 40 38 40 42 40 38 40 43 44 46 47 46 44 41 41 42 42 40 39 42 43 39 38 41 35 23 20 25 25 25 27 30 33 32 29 30 33 35 35 35 35
67 65 64 63 62 61 61 59 59 58 58 58 56 54 52 49 46 43 43 45 46 45 46 45 43 44 47 48 48 45 39 36 39 41 43 45 43 41 41 39 38 38 38 38 39 40 40 41 38 39 43 41 36 38 43 44 47 51 48 41 37 39 41 40 38 37 38 38 36 37 38 30 22 23 27 27 27 30 34 35 32 29 31 34 35 35 36 37
69 67 66 65 65 64 63 63 62 63 62 60 58 56 54 51 48 48 48 47 47 46 46 46 47 50 52 51 49 44 41 43 46 47 47 48 46 44 43 43 42 42 41 41 43 42 42 43 41 42 46 43 37 38 42 45 52 53 42 33 34 38 38 37 36 34 34 36 38 38 35 30 28 27 27 29 32 34 35 35 33 32 35 36 36 37 38 37
Wind_Direction
318 318 315 304 298 305 311 308 296 278 274 288 293 297 298 292 297 306 310 312 308 298 286 280 283 285 287 290 290 283 269 257 250 246 240 238 233 228 229 229 228 225 219 214 209 205 205 207 209 210 209 213 219 222 219 212 207 205 202 196 191 193 195 204 214 217 218 224 227 227 231 234 237 240 241 242 243 244 245 246 245 245 248 252 258 263 268 271
323 323 317 306 304 309 311 308 293 279 287 296 288 284 281 284 304 319 325 328 329 323 306 295 296 293 292 298 302 300 290 266 246 239 235 233 229 223 224 225 225 221 215 211 206 202 202 202 207 209 208 212 217 215 210 205 203 200 197 192 187 189 196 209 216 217 219 225 228 230 233 235 239 241 241 243 242 243 244 245 243 242 247 253 258 264 267 268
328 327 320 310 309 311 311 305 288 282 293 279 263 258 270 288 303 316 332 335 338 336 322 316 316 306 302 309 311 309 302 282 241 228 226 228 226 220 220 221 221 218 213 210 204 198 196 201 209 207 204 209 213 209 202 199 199 196 193 187 183 190 201 212 215 217 221 224 228 231 234 236 240 241 243 244 242 242 242 242 241 240 247 254 260 263 264 267
333 331 323 314 311 311 308 296 283 280 265 247 247 256 274 292 302 317 337 339 340 339 328 326 327 316 311 310 311 315 301 272 224 218 220 224 224 218 216 216 218 216 211 208 200 193 195 206 210 204 201 207 210 205 197 194 195 193 188 182 184 196 205 212 215 217 220 223 227 229 231 235 239 242 243 245 243 241 238 238 241 243 249 256 258 259 262 266
337 332 324 316 313 312 304 294 289 273 246 252 254 264 282 297 303 316 338 337 338 340 331 328 329 321 310 304 307 319 302 258 223 216 219 222 222 217 214 216 216 213 210 203 195 193 201 208 206 201 202 208 208 202 195 193 193 190 185 183 191 202 207 213 216 218 221 223 226 227 228 233 239 242 243 247 246 238 238 240 244 246 249 254 255 256 259 265
338 332 324 317 314 312 303 300 295 270 261 271 275 284 299 308 304 315 340 336 335 341 336 330 330 326 316 312 317 324 305 262 229 216 219 220 218 216 214 214 213 211 206 197 194 199 204 204 202 201 203 205 202 197 194 193 191 188 187 189 196 204 208 214 218 219 222 223 226 228 230 235 240 242 243 249 244 236 239 243 245 246 248 253 255 255 258 266
339 332 325 318 315 311 304 306 297 274 276 285 292 300 310 318 310 314 338 335 332 340 340 336 332 334 334 333 334 321 293 250 216 207 214 215 210 208 206 207 207 205 197 194 199 204 200 199 199 201 201 199 195 192 193 192 190 189 189 193 201 207 211 216 219 220 222 224 226 227 230 236 239 241 243 250 243 236 241 244 244 247 250 254 256 258 263 269
340 332 324 317 314 310 307 305 292 281 286 293 300 307 313 324 320 312 325 333 336 339 339 338 334 339 347 338 326 307 283 243 217 216 220 216 205 195 194 195 195 195 194 198 206 203 195 195 196 197 195 191 190 191 191 191 191 189 191 198 204 208 212 216 219 221 223 223 225 225 227 235 238 235 239 249 244 238 241 246 247 250 252 254 257 262 268 271
343 333 321 317 311 310 309 300 290 286 292 298 306 311 314 326 324 310 320 333 338 340 334 333 333 334 341 342 333 313 297 241 216 224 225 217 200 189 190 190 188 192 200 205 206 198 191 190 191 191 188 187 188 190 190 191 190 188 194 202 205 209 212 215 217 220 222 223 225 224 226 235 236 230 238 247 246 242 246 252 252 253 254 255 259 264 268 270
346 337 319 313 312 312 311 302 294 290 296 307 310 309 314 322 315 310 324 329 328 330 325 327 328 325 325 338 343 329 319 221 201 216 215 206 191 184 193 194 193 198 205 206 199 192 187 184 184 186 185 186 188 189 190 189 188 191 199 204 207 210 212 214 217 221 223 224 227 225 226 234 236 232 240 248 250 251 254 258 255 253 253 254 259 263 266 269
343 337 322 313 313 316 317 308 298 296 304 314 311 307 316 317 308 312 320 319 320 326 321 317 321 323 314 321 338 341 341 165 183 205 203 190 180 187 199 201 203 204 204 200 190 184 181 180 181 184 185 186 188 189 189 188 189 195 202 205 210 211 213 215 219 224 225 227 229 227 226 234 236 232 241 249 253 254 254 253 252 252 253 255 259 262 264 268
339 334 327 318 315 318 319 305 298 305 314 318 315 315 318 313 315 327 325 317 324 334 327 312 316 330 311 300 327 350 19 139 167 192 197 182 179 198 206 201 199 198 196 191 181 176 176 177 181 185 187 188 189 190 190 190 192 200 203 205 210 212 214 218 222 227 228 230 232 231 227 233 238 234 240 250 254 253 251 251 252 252 254 257 260 260 264 267
343 339 333 326 321 319 309 301 307 317 320 320 321 324 320 316 333 345 341 326 325 337 328 310 313 334 306 285 313 15 101 142 162 165 190 189 187 204 202 185 184 187 183 179 174 172 174 179 184 187 189 190 191 191 191 193 197 203 204 206 211 213 216 221 225 228 231 232 233 234 227 229 240 238 241 250 254 254 253 252 253 253 254 257 259 260 263 267
347 347 342 333 325 321 314 313 322 323 320 323 324 326 320 320 341 347 341 324 310 333 331 316 314 328 304 277 294 112 140 155 162 164 187 195 195 203 192 170 171 177 175 171 171 173 176 182 186 188 190 191 192 192 192 196 200 204 206 208 214 217 220 225 228 230 233 233 234 235 226 223 241 244 243 249 254 255 254 256 257 256 257 259 260 261 263 266
348 346 343 339 329 327 330 329 330 323 321 326 322 321 316 323 342 342 341 330 305 325 332 326 326 326 312 256 264 179 162 163 171 185 196 198 201 199 185 168 163 166 169 169 171 176 180 183 185 187 191 191 192 193 195 200 204 207 210 213 217 221 225 227 230 232 233 235 235 236 228 222 240 248 247 251 256 257 256 258 260 260 260 262 263 263 262 265
345 341 336 336 330 330 334 334 333 329 326 327 322 321 318 327 341 340 341 337 320 317 319 326 335 336 321 229 229 182 178 177 188 206 200 195 202 193 179 172 164 160 164 168 171 177 180 182 184 187 189 191 193 195 199 204 208 211 214 218 220 223 228 231 233 234 236 237 238 240 233 226 238 249 252 254 257 261 262 263 264 263 262 262 261 260 261 263
338 338 330 326 325 327 330 333 337 335 331 329 326 325 321 325 336 341 342 339 335 325 313 327 345 359 137 233 198 177 193 203 218 227 209 195 197 190 181 176 170 164 164 168 172 175 179 181 184 187 190 192 196 200 203 208 212 215 217 221 224 226 230 234 235 237 239 241 242 243 239 232 238 250 257 258 258 261 264 266 266 267 266 263 261 259 259 261
328 331 327 321 321 322 323 328 333 333 329 328 326 323 323 326 333 342 343 341 342 337 330 341 358 7 298 276 194 176 196 217 229 229 212 198 195 192 186 178 174 170 169 173 175 178 182 185 187 191 194 196 200 205 209 213 217 220 221 224 227 229 232 236 238 240 243 245 246 247 244 239 240 249 258 262 263 262 262 263 265 266 267 266 264 262 261 262
322 321 318 314 314 316 319 323 327 328 325 323 324 325 325 329 335 343 347 348 348 343 344 350 2 2 294 285 283 176 183 198 218 219 207 198 194 192 187 182 178 174 176 178 180 183 186 189 193 197 199 201 205 209 213 217 220 223 225 226 229 231 235 238 241 244 246 248 251 252 250 245 243 249 257 262 266 266 264 262 263 264 265 266 267 266 265 265
318 315 314 312 310 310 313 320 327 327 323 320 325 328 331 334 338 342 346 354 354 344 346 350 354 359 323 278 284 181 177 180 189 202 203 198 194 190 187 186 183 181 182 183 185 188 190 195 201 203 205 207 211 215 217 219 223 225 227 230 232 234 239 242 244 247 249 251 254 256 256 253 249 250 257 262 266 269 269 267 265 264 264 265 266 268 268 268
313 313 311 312 313 312 311 316 324 327 322 319 323 330 336 340 341 342 345 356 357 343 345 350 353 6 9 277 265 191 182 178 171 178 192 197 194 190 188 188 187 186 187 187 190 193 195 202 207 208 210 214 217 219 220 222 226 229 231 233 236 238 243 247 250 251 253 254 255 258 259 258 256 255 258 263 266 269 270 269 268 266 264 264 265 268 270 270
304 307 307 310 314 316 317 316 320 328 328 322 321 328 336 341 343 344 347 355 355 345 343 348 355 15 32 48 201 197 189 182 174 171 178 190 193 192 189 189 189 189 190 193 196 198 201 208 212 212 215 219 221 223 225 226 229 232 235 238 241 245 247 250 253 254 256 258 258 259 259 258 258 258 259 264 267 269 269 269 268 267 265 265 266 268 269 270
299 301 302 306 310 315 320 320 318 324 326 323 321 324 333 339 343 345 348 355 354 349 346 345 355 17 31 62 126 172 190 188 185 176 174 180 188 193 194 193 193 193 194 197 200 204 208 214 218 219 221 224 226 227 229 230 233 236 239 242 245 248 250 252 254 256 258 260 261 261 261 259 258 258 259 263 265 266 267 268 269 269 270 271 271 270 270 271
300 298 298 301 307 311 316 318 318 318 319 321 320 322 329 336 341 343 344 350 354 352 346 345 354 13 29 79 134 151 164 183 189 182 179 182 184 191 198 201 202 201 202 203 205 209 213 219 224 225 227 228 229 231 232 234 237 240 243 245 247 249 253 255 257 259 260 262 264 265 264 262 261 262 261 261 262 264 266 267 270 273 274 275 275 273 272 272
307 301 298 298 301 307 310 314 316 316 315 318 320 319 325 331 334 335 331 331 345 349 337 339 352 358 16 77 124 147 153 163 184 186 182 186 191 194 200 205 208 211 214 214 216 218 220 224 228 230 231 232 232 235 237 239 241 244 247 249 251 253 257 259 261 263 264 265 267 270 271 271 268 267 266 262 261 265 268 269 272 274 275 275 275 275 275 275
311 308 304 300 298 299 303 307 310 313 314 315 316 314 314 312 314 322 321 316 322 333 318 278 253 236 205 119 128 148 151 156 178 189 188 192 196 200 205 208 210 213 217 220 222 225 228 230 233 235 236 237 237 239 242 244 245 246 249 252 255 258 260 263 264 266 268 270 272 274 276 277 275 273 273 270 266 267 268 270 271 272 273 274 275 276 276 277
308 312 312 308 301 297 295 298 301 304 307 309 307 303 301 298 300 311 314 307 308 311 301 278 232 211 197 192 199 179 164 168 178 190 197 201 204 207 211 215 218 218 220 223 223 226 230 233 235 237 239 240 241 243 246 248 249 249 252 257 260 262 263 265 266 268 270 273 274 274 276 278 279 282 281 276 272 269 267 269 270 271 273 273 274 275 277 278
301 306 310 311 309 302 296 292 290 292 296 297 296 292 289 291 295 303 304 300 299 293 291 295 261 227 216 210 217 205 189 193 199 199 202 208 213 216 216 220 225 225 226 229 228 228 233 236 237 239 241 243 245 248 250 253 254 256 258 261 263 265 265 266 267 269 271 272 273 275 277 278 282 291 292 281 275 270 266 266 268 269 271 273 274 275 276 275
291 297 301 305 308 306 300 294 289 287 286 287 287 284 284 287 290 293 293 291 290 284 282 287 281 268 261 248 235 221 213 221 225 221 219 219 221 223 224 225 228 229 231 234 233 233 236 239 241 243 244 247 249 251 253 256 259 261 262 262 264 265 266 267 268 271 272 273 276 278 279 280 283 293 296 284 275 267 264 264 266 268 268 270 272 272 272 269
280 287 292 294 297 299 299 296 292 288 285 283 282 281 281 281 282 284 283 281 282 280 277 274 271 270 267 258 241 233 239 246 247 241 237 234 231 229 230 230 231 233 234 235 236 236 238 240 243 245 247 249 251 253 255 258 260 262 262 263 264 265 267 269 271 274 274 276 278 279 280 281 284 292 291 280 273 266 263 263 265 268 269 269 269 268 266 264
271 276 281 284 286 285 286 289 290 288 287 283 280 280 280 279 279 278 275 273 273 272 270 267 263 261 258 253 244 243 249 254 256 254 246 243 241 238 238 238 238 238 238 238 239 239 240 242 244 247 249 250 252 254 257 259 261 262 263 265 266 268 270 272 273 274 275 277 278 279 280 281 285 293 287 275 270 266 263 261 262 266 268 269 268 267 264 262
265 268 272 276 277 276 275 278 282 285 285 283 281 280 280 282 279 272 267 265 265 264 263 261 259 256 252 250 249 247 245 247 253 255 248 245 247 246 243 243 243 243 242 242 242 242 243 244 246 247 249 251 253 255 257 258 259 261 264 266 267 269 271 271 272 273 275 278 279 280 281 281 287 294 284 274 270 267 264 261 259 261 264 266 267 268 267 265
260 262 265 269 272 273 272 271 273 278 279 280 281 278 280 285 278 269 267 267 265 261 259 259 259 255 252 249 248 245 242 245 251 253 251 249 249 250 248 244 244 244 243 243 244 244 245 246 247 248 250 251 253 253 255 257 258 261 263 264 267 270 271 272 273 273 275 277 278 279 280 282 290 292 280 273 270 267 265 263 260 258 260 263 266 268 269 268
256 257 259 262 266 269 270 269 268 269 272 276 276 275 279 279 270 269 274 275 269 262 257 258 258 256 253 249 244 244 243 245 250 255 259 261 260 257 254 252 248 246 244 244 245 245 246 247 247 248 249 250 252 253 255 257 259 261 263 265 267 269 270 272 272 273 274 275 276 278 280 284 290 286 276 270 265 263 263 264 264 263 263 265 267 269 269 269
254 254 255 257 260 264 267 267 266 265 266 268 271 276 275 267 264 268 273 271 267 265 262 259 258 255 253 249 245 244 244 244 248 253 256 260 264 262 258 256 252 248 246 245 246 247 245 246 248 248 249 249 251 254 256 257 259 261 263 265 266 266 268 270 272 273 274 274 275 277 280 286 291 287 276 268 263 263 266 267 269 271 271 270 269 269 269 269
252 252 252 254 256 258 261 264 264 263 261 260 265 271 264 261 265 267 266 263 262 265 266 264 262 259 255 252 248 246 245 246 248 249 251 254 256 259 259 257 252 248 247 245 246 247 244 244 247 248 248 249 250 252 254 256 259 261 263 264 264 264 267 270 273 275 276 277 277 278 281 287 291 284 272 266 266 270 272 274 275 276 274 272 270 270 271 271
251 251 251 251 252 255 257 259 260 261 260 258 258 261 259 263 268 268 264 263 261 262 264 265 266 265 263 258 253 248 246 246 248 249 251 252 253 257 260 261 257 253 251 250 248 248 245 242 246 249 250 251 252 252 254 258 261 261 261 262 263 265 268 272 275 277 278 279 279 281 285 289 288 281 271 268 270 273 275 277 278 276 273 272 273 274 274 274
251 250 250 250 251 252 254 256 257 258 258 257 256 256 257 260 264 265 265 266 265 263 264 264 265 266 266 265 261 255 250 247 249 250 251 253 255 256 258 260 261 259 258 257 254 253 251 247 248 252 254 254 256 257 259 261 263 263 262 264 266 268 270 273 276 278 279 280 281 280 283 292 290 276 270 270 273 275 276 278 277 275 273 274 275 276 276 276
249 250 250 250 250 250 251 252 255 256 257 257 256 254 253 253 257 262 265 267 267 266 264 264 264 263 263 265 265 262 256 251 250 251 252 254 256 257 258 259 261 261 261 261 259 258 258 255 252 253 255 256 258 261 261 262 264 264 266 267 269 271 272 273 275 278 279 281 282 281 283 294 275 265 268 276 280 277 276 277 277 276 277 278 279 279 280 280
248 249 248 249 250 250 250 250 251 254 257 257 254 252 253 253 255 259 261 261 264 266 265 265 265 265 263 264 265 265 262 258 256 255 255 257 259 260 260 260 261 261 261 261 261 260 260 259 255 254 256 259 259 260 260 262 264 266 267 268 270 271 273 274 274 276 277 279 281 284 290 294 271 269 273 277 274 269 271 278 281 281 281 282 282 282 282 283
248 248 248 249 250 249 249 250 250 252 255 254 251 251 253 254 256 258 259 259 260 261 262 264 266 267 266 265 265 265 264 263 261 260 258 258 260 260 261 261 261 261 260 260 260 259 260 260 258 256 258 259 258 260 262 263 265 267 268 269 271 272 273 274 273 274 275 277 281 286 294 295 277 275 274 262 254 257 272 282 282 281 281 280 280 280 282 283
249 248 247 247 248 249 249 249 248 249 252 252 250 249 251 253 256 259 259 258 257 256 256 258 261 264 265 266 267 266 265 263 262 261 259 257 258 259 260 260 260 260 261 260 260 261 261 260 260 259 259 258 259 261 264 265 267 268 268 269 270 270 271 271 271 272 273 276 282 286 292 293 272 265 262 248 238 250 272 278 274 273 273 275 277 281 285 287
250 249 247 247 248 248 248 248 248 249 252 251 249 248 250 250 252 256 258 258 256 255 254 254 255 258 261 264 265 266 266 264 262 261 259 256 258 260 259 258 259 259 260 259 260 261 261 261 261 259 259 260 262 263 264 267 267 267 266 267 266 267 268 269 271 273 273 278 284 283 287 290 251 239 245 254 255 263 273 273 268 266 268 273 278 282 285 287
250 249 248 248 248 248 249 249 249 250 249 248 246 245 247 248 249 253 257 259 259 258 256 254 254 254 256 258 261 264 266 266 264 263 261 259 259 260 260 259 259 259 260 260 260 260 262 262 262 261 261 261 262 264 265 265 264 263 263 264 265 266 267 268 272 273 274 281 283 279 282 249 214 231 245 259 268 271 272 271 269 269 270 273 277 279 280 282
248 249 249 249 249 249 250 250 249 248 247 246 246 245 246 248 249 251 256 259 260 260 258 256 254 253 252 254 257 260 262 264 263 261 262 263 263 263 264 263 262 262 263 263 263 263 263 263 264 264 263 262 263 265 264 261 261 262 262 262 263 264 265 268 270 271 276 284 277 274 278 232 211 233 251 260 268 269 266 267 269 271 273 274 276 277 279 280
247 248 249 249 251 251 252 251 250 248 247 247 247 246 245 246 247 248 250 254 257 260 259 257 255 253 252 253 255 257 258 259 260 259 260 261 262 265 266 266 266 266 266 266 266 265 265 265 266 266 265 264 265 264 261 260 260 261 261 261 262 263 264 266 268 272 281 282 272 274 284 268 243 242 255 266 276 274 267 265 266 269 271 272 273 275 277 279
245 246 248 250 251 252 252 251 251 251 250 249 249 247 245 245 244 244 246 251 254 257 258 257 256 255 254 254 255 254 253 254 256 258 259 259 260 261 261 263 266 267 268 269 268 267 267 266 267 266 265 264 264 262 260 260 260 260 260 260 262 264 265 266 271 276 278 275 274 281 285 276 268 264 267 272 272 268 265 266 266 267 268 270 272 273 275 277
244 245 247 248 249 251 252 253 253 253 251 249 248 247 245 243 243 244 245 248 250 253 256 257 257 258 257 255 254 254 253 253 255 257 259 258 257 256 257 260 262 264 267 268 268 269 269 268 268 268 266 264 264 263 262 261 261 261 261 262 263 265 267 268 271 273 273 273 278 284 281 277 281 287 283 272 263 259 260 263 264 265 266 269 270 272 274 276
244 244 245 247 248 250 252 253 252 251 250 249 248 247 246 245 244 244 245 247 248 251 255 257 258 260 259 257 255 255 253 253 254 255 255 255 255 256 258 258 259 261 262 264 267 269 270 270 269 268 267 266 265 266 266 265 264 263 263 263 264 264 266 268 270 272 275 276 279 283 281 281 288 296 286 272 264 263 263 261 260 263 266 267 267 269 271 273
245 245 246 247 247 249 250 251 251 250 250 250 248 247 247 247 246 245 247 249 250 250 252 256 258 258 257 256 254 254 254 256 256 255 255 255 255 256 257 257 259 261 262 264 266 267 268 269 268 268 269 267 266 268 268 268 268 266 264 264 265 267 269 271 274 276 278 279 283 284 281 281 290 293 284 278 275 273 271 266 263 263 266 266 267 269 269 269
246 246 247 247 246 246 248 249 250 250 249 248 248 248 248 248 248 248 247 248 249 249 250 253 254 255 255 254 255 257 259 260 257 255 255 256 255 256 257 259 261 263 264 265 265 266 268 269 269 270 269 267 266 268 269 270 269 266 264 266 270 272 273 275 277 278 279 282 284 281 279 284 289 284 282 283 279 273 270 270 269 270 269 268 269 270 269 269
246 247 247 247 246 245 246 247 248 248 248 248 249 250 250 250 249 248 246 246 247 249 249 250 251 252 254 255 257 259 260 258 257 257 257 258 259 259 259 260 260 261 262 264 265 266 268 270 271 270 269 269 268 268 270 271 267 264 265 272 273 272 274 277 277 278 280 282 281 280 284 289 289 285 282 279 274 271 270 272 275 275 273 271 271 271 270 272
Height
5760 5759 5757 5756 5755 5755 5755 5754 5754 5753 5753 5752 5751 5750 5749 5748 5747 5746 5745 5743 5742 5740 5739 5737 5735 5733 5731 5728 5726 5725 5724 5723 5723 5726 5729 5731 5734 5736 5739 5740 5743 5746 5748 5752 5755 5758 5761 5764 5767 5770 5773 5776 5779 5782 5786 5790 5793 5795 5799 5805 5809 5811 5813 5815 5814 5814 5816 5816 5819 5823 5823 5824 5825 5826 5828 5828 5829 5829 5830 5831 5830 5830 5830 5830 5830 5831 5831 5831
5758 5757 5756 5755 5755 5755 5754 5753 5753 5753 5752 5752 5751 5750 5749 5747 5746 5744 5743 5742 5740 5737 5736 5735 5732 5730 5727 5725 5723 5721 5720 5718 5718 5721 5724 5728 5731 5733 5736 5738 5740 5743 5746 5749 5752 5756 5759 5762 5765 5767 5770 5774 5777 5781 5784 5788 5791 5794 5800 5805 5807 5809 5811 5811 5811 5813 5815 5816 5819 5821 5822 5823 5823 5824 5825 5826 5827 5827 5828 5828 5827 5828 5828 5828 5828 5829 5829 5828
5757 5756 5755 5754 5754 5754 5753 5753 5752 5752 5752 5751 5750 5749 5748 5746 5744 5743 5741 5740 5738 5735 5733 5731 5729 5726 5724 5722 5721 5720 5718 5716 5716 5718 5721 5725 5728 5730 5733 5735 5737 5740 5744 5746 5750 5754 5757 5760 5763 5765 5769 5772 5776 5780 5783 5787 5790 5794 5799 5803 5805 5806 5807 5808 5810 5812 5813 5815 5817 5819 5820 5821 5821 5822 5823 5824 5824 5825 5827 5824 5824 5826 5826 5826 5827 5828 5827 5826
5756 5755 5754 5754 5753 5753 5753 5752 5751 5751 5751 5750 5749 5748 5747 5746 5743 5741 5739 5737 5735 5734 5731 5728 5726 5724 5722 5721 5720 5719 5718 5717 5717 5718 5719 5722 5725 5727 5730 5733 5735 5739 5741 5744 5748 5751 5755 5758 5761 5764 5767 5771 5775 5779 5783 5786 5790 5794 5797 5801 5802 5803 5804 5806 5808 5810 5811 5813 5815 5817 5818 5818 5819 5820 5822 5822 5823 5824 5823 5820 5822 5824 5824 5824 5825 5826 5825 5824
5755 5754 5754 5753 5753 5752 5752 5751 5751 5751 5750 5749 5749 5748 5746 5745 5742 5740 5738 5736 5734 5732 5730 5728 5725 5723 5721 5720 5719 5719 5718 5717 5718 5718 5719 5721 5723 5726 5729 5731 5734 5737 5740 5743 5746 5749 5753 5757 5760 5763 5766 5770 5774 5778 5783 5786 5790 5793 5796 5798 5799 5800 5802 5804 5806 5807 5810 5812 5814 5815 5816 5817 5817 5819 5820 5820 5823 5822 5817 5817 5821 5823 5822 5823 5823 5823 5823 5823
5755 5754 5753 5753 5752 5752 5751 5751 5750 5750 5749 5748 5747 5746 5745 5743 5741 5738 5736 5735 5733 5731 5729 5727 5725 5722 5720 5719 5719 5718 5718 5717 5717 5717 5718 5720 5722 5724 5727 5729 5733 5736 5739 5742 5744 5748 5752 5756 5759 5762 5765 5768 5772 5777 5782 5785 5788 5791 5794 5796 5797 5798 5801 5802 5804 5806 5808 5810 5812 5813 5814 5815 5816 5817 5818 5820 5821 5817 5813 5816 5819 5820 5820 5821 5821 5821 5821 5821
5754 5754 5753 5752 5751 5751 5750 5750 5750 5749 5748 5747 5745 5744 5743 5742 5739 5737 5735 5733 5732 5730 5729 5727 5725 5722 5720 5719 5719 5718 5718 5717 5716 5717 5717 5718 5720 5723 5726 5728 5732 5735 5738 5740 5743 5747 5751 5754 5757 5760 5764 5767 5772 5777 5780 5783 5786 5789 5791 5793 5795 5797 5799 5801 5803 5805 5807 5808 5809 5811 5813 5813 5814 5816 5818 5819 5817 5811 5810 5815 5817 5817 5818 5819 5818 5818 5819 5819
5754 5753 5753 5752 5751 5750 5749 5749 5749 5748 5747 5746 5744 5743 5742 5740 5738 5736 5734 5733 5731 5729 5728 5726 5724 5722 5720 5719 5719 5718 5718 5717 5716 5717 5717 5718 5720 5722 5725 5728 5731 5734 5737 5739 5742 5746 5749 5752 5756 5759 5763 5767 5771 5775 5779 5781 5784 5787 5790 5791 5794 5796 5798 5800 5802 5804 5805 5806 5807 5809 5811 5810 5812 5815 5817 5814 5809 5807 5808 5813 5815 5816 5816 5816 5816 5816 5817 5817
5753 5753 5752 5751 5750 5749 5749 5748 5748 5747 5746 5745 5744 5742 5741 5739 5738 5736 5734 5732 5731 5729 5727 5725 5724 5722 5720 5719 5718 5717 5716 5715 5716 5716 5716 5718 5720 5723 5725 5728 5731 5734 5736 5739 5742 5745 5748 5751 5754 5758 5762 5766 5770 5774 5777 5780 5783 5786 5788 5790 5793 5795 5797 5798 5800 5800 5801 5803 5804 5807 5808 5808 5810 5814 5814 5807 5803 5805 5808 5812 5814 5814 5814 5814 5814 5814 5814 5814
5753 5752 5751 5751 5750 5749 5748 5748 5747 5746 5745 5745 5744 5742 5741 5739 5738 5736 5734 5732 5731 5730 5728 5726 5723 5722 5720 5719 5718 5716 5715 5714 5715 5715 5716 5718 5721 5724 5726 5729 5732 5734 5735 5738 5740 5743 5746 5749 5754 5758 5762 5766 5769 5773 5776 5779 5782 5784 5787 5790 5792 5793 5795 5796 5797 5797 5798 5800 5802 5805 5806 5806 5809 5811 5808 5802 5801 5806 5809 5811 5812 5812 5812 5812 5812 5812 5812 5812
5752 5751 5751 5750 5750 5749 5748 5747 5746 5745 5745 5744 5743 5742 5741 5739 5737 5736 5734 5732 5730 5729 5728 5726 5724 5722 5721 5719 5718 5716 5715 5714 5715 5716 5717 5720 5723 5725 5727 5729 5731 5733 5734 5737 5739 5742 5745 5749 5754 5758 5762 5766 5769 5772 5775 5778 5781 5783 5786 5789 5790 5792 5793 5794 5794 5795 5796 5798 5800 5802 5804 5805 5807 5808 5804 5800 5802 5806 5808 5808 5809 5809 5809 5809 5810 5810 5810 5810
5751 5751 5750 5750 5749 5748 5747 5746 5745 5744 5744 5743 5742 5742 5740 5739 5737 5735 5734 5731 5730 5729 5727 5726 5724 5722 5721 5720 5719 5718 5716 5716 5717 5719 5720 5722 5724 5726 5727 5728 5730 5732 5734 5736 5739 5742 5746 5750 5755 5759 5762 5766 5769 5772 5774 5777 5780 5782 5785 5787 5788 5790 5791 5791 5792 5793 5795 5796 5798 5800 5803 5805 5804 5803 5801 5799 5801 5804 5805 5806 5806 5807 5807 5807 5807 5807 5807 5807
5751 5750 5749 5749 5748 5748 5746 5745 5744 5744 5743 5742 5742 5741 5740 5738 5737 5735 5733 5731 5729 5729 5727 5725 5724 5723 5721 5721 5721 5720 5719 5719 5720 5721 5722 5723 5725 5726 5727 5728 5729 5732 5734 5737 5739 5742 5747 5751 5755 5759 5762 5765 5768 5771 5774 5776 5779 5781 5783 5785 5786 5787 5788 5788 5789 5791 5793 5794 5796 5797 5801 5803 5801 5800 5800 5798 5799 5801 5803 5803 5804 5804 5804 5804 5804 5804 5805 5804
5750 5750 5749 5749 5748 5747 5746 5745 5744 5743 5742 5741 5741 5740 5739 5738 5737 5735 5733 5731 5729 5728 5726 5724 5724 5723 5721 5721 5722 5722 5721 5722 5723 5723 5723 5724 5725 5727 5728 5729 5730 5733 5735 5738 5741 5744 5748 5752 5756 5759 5762 5765 5767 5770 5773 5775 5778 5780 5782 5783 5784 5785 5785 5786 5787 5789 5790 5792 5794 5795 5799 5801 5798 5798 5798 5796 5797 5799 5800 5801 5801 5802 5802 5801 5801 5802 5802 5801
5750 5749 5749 5748 5748 5747 5746 5745 5744 5743 5742 5741 5740 5739 5739 5738 5737 5735 5733 5731 5729 5728 5727 5725 5724 5723 5722 5722 5723 5724 5724 5725 5725 5724 5724 5725 5726 5727 5729 5731 5732 5734 5736 5739 5742 5745 5749 5752 5755 5759 5761 5764 5767 5769 5772 5774 5776 5778 5780 5781 5782 5782 5783 5784 5785 5787 5788 5790 5791 5793 5797 5799 5796 5795 5795 5794 5794 5795 5798 5799 5799 5799 5799 5799 5799 5799 5799 5799
5750 5749 5748 5748 5748 5747 5746 5745 5744 5743 5742 5741 5739 5739 5738 5738 5737 5735 5733 5730 5729 5728 5727 5725 5724 5723 5722 5722 5723 5724 5725 5726 5725 5724 5725 5726 5727 5728 5730 5732 5734 5735 5737 5740 5743 5746 5749 5752 5755 5758 5761 5763 5766 5768 5770 5773 5775 5776 5778 5779 5780 5781 5782 5782 5783 5784 5786 5788 5789 5791 5794 5797 5795 5792 5792 5792 5792 5793 5795 5797 5796 5796 5796 5796 5796 5796 5796 5796
5749 5749 5748 5748 5747 5747 5746 5745 5744 5743 5742 5741 5740 5739 5738 5737 5736 5735 5733 5730 5729 5728 5726 5725 5724 5723 5723 5723 5723 5724 5725 5726 5726 5725 5726 5726 5727 5729 5731 5733 5735 5737 5739 5741 5744 5747 5750 5753 5755 5758 5760 5763 5765 5767 5769 5771 5773 5775 5776 5777 5778 5780 5780 5780 5781 5783 5784 5786 5787 5788 5791 5794 5794 5791 5790 5789 5789 5791 5793 5794 5793 5793 5793 5793 5792 5792 5793 5793
5749 5748 5748 5747 5746 5746 5745 5744 5743 5742 5742 5741 5740 5739 5738 5737 5736 5734 5732 5730 5729 5728 5726 5726 5725 5724 5723 5723 5723 5724 5725 5726 5726 5726 5727 5727 5728 5730 5732 5734 5736 5738 5740 5742 5745 5748 5751 5753 5756 5758 5759 5761 5763 5766 5768 5769 5771 5773 5774 5776 5777 5778 5779 5778 5779 5781 5782 5783 5784 5785 5788 5792 5792 5790 5788 5785 5785 5788 5791 5791 5791 5790 5790 5789 5788 5789 5789 5789
5748 5748 5747 5747 5746 5745 5744 5744 5743 5742 5741 5740 5739 5738 5738 5737 5736 5734 5733 5731 5729 5728 5726 5726 5725 5724 5723 5723 5723 5724 5725 5726 5726 5727 5727 5728 5729 5731 5732 5734 5736 5739 5741 5743 5746 5749 5751 5754 5755 5756 5758 5761 5763 5764 5766 5768 5770 5772 5773 5774 5775 5776 5776 5776 5777 5779 5779 5781 5782 5782 5784 5788 5790 5789 5787 5783 5782 5784 5787 5788 5788 5787 5786 5785 5784 5785 5786 5786
5748 5747 5746 5746 5745 5745 5744 5743 5742 5741 5740 5739 5738 5737 5737 5736 5735 5734 5733 5732 5730 5728 5727 5726 5725 5725 5724 5723 5723 5724 5725 5726 5727 5728 5728 5729 5730 5732 5733 5735 5737 5739 5742 5744 5747 5749 5751 5753 5754 5755 5758 5760 5762 5763 5765 5767 5768 5770 5772 5772 5774 5774 5774 5774 5775 5776 5777 5778 5779 5779 5781 5784 5787 5787 5785 5782 5780 5781 5782 5783 5784 5783 5782 5782 5781 5781 5782 5782
5747 5746 5745 5745 5744 5744 5744 5743 5742 5741 5739 5738 5737 5737 5736 5736 5735 5734 5733 5732 5731 5729 5727 5726 5726 5725 5724 5724 5723 5724 5725 5726 5727 5728 5730 5731 5732 5733 5734 5736 5738 5740 5742 5744 5746 5748 5751 5752 5752 5755 5757 5759 5761 5762 5764 5766 5767 5769 5770 5770 5771 5772 5772 5771 5772 5773 5774 5775 5776 5776 5777 5780 5782 5784 5783 5780 5779 5778 5778 5778 5778 5778 5778 5778 5778 5778 5778 5778
5746 5745 5744 5743 5743 5743 5743 5742 5741 5740 5739 5737 5737 5736 5736 5735 5735 5734 5733 5732 5731 5730 5728 5727 5726 5726 5725 5725 5724 5724 5725 5726 5727 5728 5730 5731 5733 5734 5735 5737 5739 5740 5742 5744 5746 5748 5750 5750 5752 5755 5756 5758 5760 5761 5763 5764 5765 5766 5767 5768 5769 5769 5769 5770 5770 5770 5770 5771 5773 5772 5772 5776 5778 5780 5780 5778 5777 5775 5773 5773 5772 5772 5773 5774 5775 5775 5774 5774
5744 5744 5743 5742 5742 5741 5742 5741 5741 5740 5738 5737 5736 5735 5735 5735 5735 5734 5734 5733 5732 5731 5729 5727 5726 5726 5726 5726 5726 5725 5725 5726 5727 5728 5730 5731 5733 5735 5736 5738 5739 5741 5742 5744 5746 5748 5749 5750 5751 5754 5755 5757 5759 5760 5761 5762 5763 5764 5765 5766 5767 5767 5767 5767 5767 5767 5768 5767 5768 5768 5767 5771 5775 5775 5778 5777 5773 5771 5770 5768 5767 5767 5768 5769 5770 5771 5770 5770
5743 5742 5742 5741 5741 5740 5740 5740 5740 5739 5738 5737 5736 5735 5735 5735 5734 5734 5734 5733 5733 5732 5730 5729 5727 5727 5727 5727 5727 5727 5727 5727 5728 5729 5730 5731 5733 5735 5737 5738 5740 5741 5743 5744 5746 5747 5748 5750 5751 5753 5755 5756 5757 5758 5759 5760 5761 5762 5763 5764 5764 5765 5764 5765 5765 5764 5764 5764 5764 5764 5762 5766 5771 5772 5774 5774 5770 5767 5766 5764 5763 5763 5764 5764 5764 5765 5765 5765
5742 5741 5741 5740 5740 5739 5738 5738 5738 5739 5738 5736 5735 5734 5734 5734 5734 5734 5734 5734 5733 5733 5732 5730 5729 5728 5728 5728 5728 5728 5728 5728 5729 5729 5730 5731 5733 5734 5736 5738 5739 5741 5742 5744 5745 5747 5748 5749 5751 5752 5753 5755 5756 5756 5757 5758 5759 5760 5761 5762 5762 5762 5762 5762 5762 5761 5761 5761 5762 5761 5757 5760 5767 5769 5769 5770 5766 5764 5762 5760 5760 5759 5758 5759 5759 5759 5760 5760
5742 5741 5740 5739 5739 5738 5737 5737 5737 5737 5737 5736 5735 5734 5733 5733 5733 5734 5734 5733 5733 5733 5732 5732 5731 5730 5730 5729 5729 5729 5729 5729 5730 5730 5731 5732 5733 5734 5735 5737 5738 5740 5741 5743 5744 5746 5747 5748 5749 5750 5751 5752 5753 5754 5755 5755 5757 5758 5759 5759 5759 5760 5759 5759 5759 5759 5758 5758 5759 5759 5755 5753 5760 5765 5765 5764 5762 5761 5759 5757 5756 5754 5754 5754 5754 5754 5755 5755
5741 5740 5739 5738 5737 5737 5736 5736 5736 5736 5736 5736 5734 5733 5733 5733 5733 5733 5733 5733 5733 5732 5732 5732 5731 5731 5730 5730 5730 5730 5730 5730 5731 5731 5731 5732 5733 5734 5735 5736 5737 5739 5740 5741 5742 5744 5745 5746 5747 5748 5749 5750 5751 5752 5752 5753 5754 5756 5757 5756 5756 5757 5756 5756 5756 5755 5755 5755 5755 5756 5753 5749 5753 5760 5761 5759 5757 5756 5755 5753 5751 5750 5750 5750 5750 5751 5751 5752
5740 5739 5738 5737 5736 5736 5735 5735 5734 5734 5734 5734 5734 5733 5733 5732 5732 5732 5732 5732 5732 5732 5731 5731 5731 5731 5730 5730 5730 5730 5730 5730 5731 5731 5732 5732 5733 5734 5735 5736 5736 5738 5739 5739 5741 5742 5743 5744 5745 5746 5747 5748 5749 5749 5750 5750 5751 5753 5754 5754 5753 5753 5753 5753 5752 5752 5751 5751 5751 5753 5752 5747 5748 5755 5756 5754 5753 5752 5751 5750 5748 5747 5746 5746 5746 5747 5747 5748
5739 5738 5737 5736 5735 5735 5734 5733 5733 5733 5733 5733 5733 5733 5732 5732 5731 5731 5731 5731 5731 5730 5730 5730 5730 5730 5730 5730 5729 5730 5730 5730 5730 5731 5731 5732 5732 5733 5734 5735 5735 5736 5737 5738 5739 5740 5741 5742 5742 5743 5744 5745 5746 5746 5747 5748 5748 5750 5751 5750 5750 5749 5749 5749 5749 5749 5748 5747 5749 5749 5748 5745 5745 5751 5752 5750 5749 5748 5747 5746 5745 5744 5744 5743 5743 5743 5744 5745
5737 5736 5736 5735 5734 5734 5733 5732 5732 5732 5732 5732 5731 5731 5731 5730 5730 5730 5730 5730 5730 5729 5729 5729 5729 5729 5729 5729 5729 5729 5729 5729 5729 5730 5730 5730 5731 5732 5732 5733 5734 5734 5735 5736 5737 5738 5739 5739 5740 5741 5742 5742 5743 5744 5744 5745 5746 5746 5747 5747 5746 5746 5746 5746 5746 5746 5744 5744 5746 5745 5744 5742 5742 5747 5748 5746 5745 5744 5743 5743 5742 5742 5741 5740 5740 5740 5740 5741
5734 5734 5734 5734 5733 5732 5731 5731 5731 5730 5730 5730 5730 5729 5729 5729 5729 5728 5728 5729 5728 5728 5728 5728 5728 5728 5728 5728 5728 5728 5728 5728 5728 5728 5729 5729 5729 5730 5730 5731 5732 5733 5733 5734 5735 5736 5736 5737 5738 5739 5739 5740 5740 5741 5742 5742 5742 5743 5743 5743 5743 5742 5742 5742 5743 5742 5741 5741 5742 5741 5740 5739 5740 5743 5743 5742 5741 5740 5740 5739 5739 5739 5738 5737 5736 5736 5737 5738
5731 5731 5731 5731 5731 5730 5730 5730 5729 5729 5729 5728 5728 5728 5727 5727 5727 5727 5727 5727 5727 5727 5727 5727 5726 5727 5727 5727 5727 5727 5727 5727 5727 5727 5727 5728 5728 5728 5728 5729 5729 5730 5731 5731 5732 5732 5733 5734 5735 5736 5736 5737 5738 5738 5739 5739 5739 5739 5740 5740 5739 5739 5739 5738 5739 5739 5737 5737 5738 5737 5736 5736 5738 5740 5739 5738 5737 5736 5735 5734 5735 5735 5734 5733 5732 5732 5733 5734
5728 5728 5728 5729 5729 5728 5728 5728 5727 5727 5727 5727 5726 5726 5726 5726 5725 5725 5725 5725 5726 5726 5726 5725 5725 5725 5725 5726 5726 5726 5726 5726 5726 5726 5726 5726 5726 5726 5727 5727 5727 5728 5728 5728 5729 5730 5731 5732 5733 5733 5734 5734 5735 5735 5735 5736 5736 5736 5737 5736 5736 5736 5735 5734 5735 5735 5734 5734 5734 5734 5733 5733 5736 5737 5735 5734 5733 5731 5730 5729 5730 5731 5730 5729 5729 5728 5729 5729
5725 5725 5725 5725 5726 5726 5726 5726 5725 5725 5725 5725 5725 5725 5725 5724 5723 5723 5723 5724 5724 5724 5724 5724 5724 5724 5724 5724 5724 5724 5725 5725 5725 5725 5725 5725 5725 5725 5725 5725 5725 5726 5726 5726 5727 5728 5728 5729 5729 5730 5730 5731 5731 5732 5732 5732 5732 5733 5733 5733 5733 5733 5731 5730 5731 5731 5731 5731 5731 5731 5730 5731 5733 5733 5731 5730 5729 5726 5725 5725 5726 5727 5727 5726 5725 5725 5725 5724
5722 5722 5722 5722 5722 5723 5723 5723 5723 5723 5723 5723 5723 5724 5723 5722 5721 5721 5721 5722 5722 5722 5722 5722 5722 5723 5723 5722 5723 5723 5723 5723 5723 5724 5724 5724 5724 5724 5724 5724 5724 5724 5724 5724 5725 5725 5726 5726 5726 5727 5727 5728 5728 5728 5729 5729 5729 5730 5730 5730 5730 5729 5727 5727 5727 5727 5727 5727 5727 5728 5728 5729 5730 5730 5728 5725 5724 5722 5722 5722 5723 5724 5724 5723 5722 5721 5721 5720
5719 5719 5718 5718 5719 5719 5719 5720 5720 5720 5720 5720 5721 5722 5721 5720 5719 5720 5720 5719 5720 5720 5720 5720 5721 5721 5721 5721 5721 5721 5721 5722 5722 5722 5722 5722 5722 5722 5722 5722 5722 5722 5722 5723 5723 5723 5724 5724 5724 5724 5724 5725 5725 5726 5726 5726 5726 5727 5727 5727 5726 5725 5724 5724 5723 5724 5724 5723 5724 5725 5726 5727 5728 5726 5723 5721 5720 5720 5719 5719 5720 5720 5719 5717 5717 5716 5716 5716
5716 5715 5715 5715 5715 5715 5716 5716 5716 5717 5717 5717 5719 5720 5719 5718 5717 5718 5718 5717 5718 5718 5718 5718 5719 5719 5719 5719 5719 5719 5719 5720 5720 5720 5720 5720 5720 5720 5720 5720 5720 5720 5721 5721 5721 5721 5722 5722 5722 5722 5722 5723 5723 5723 5723 5723 5723 5724 5724 5723 5723 5722 5722 5721 5720 5720 5720 5719 5720 5722 5724 5725 5725 5723 5719 5717 5718 5717 5716 5716 5716 5716 5714 5712 5712 5712 5712 5712
5712 5712 5711 5711 5711 5712 5712 5712 5713 5713 5713 5714 5716 5717 5716 5715 5715 5715 5715 5716 5715 5716 5716 5716 5716 5716 5716 5716 5717 5717 5717 5718 5718 5718 5718 5718 5718 5718 5718 5718 5718 5718 5718 5719 5719 5719 5719 5720 5720 5720 5720 5720 5720 5720 5721 5721 5720 5721 5721 5720 5720 5719 5719 5719 5717 5717 5717 5716 5717 5719 5721 5723 5723 5719 5715 5714 5715 5714 5713 5713 5712 5711 5709 5708 5708 5707 5707 5708
5707 5707 5708 5708 5707 5707 5707 5707 5708 5709 5710 5712 5715 5714 5713 5712 5711 5711 5712 5713 5713 5713 5714 5714 5714 5714 5714 5714 5714 5714 5714 5715 5715 5715 5716 5716 5716 5715 5715 5715 5715 5716 5716 5716 5717 5717 5717 5717 5718 5718 5718 5718 5718 5718 5718 5718 5717 5718 5718 5718 5717 5716 5716 5716 5715 5714 5714 5713 5713 5715 5719 5721 5719 5714 5711 5711 5712 5711 5711 5710 5708 5707 5705 5704 5703 5703 5703 5703
5702 5703 5704 5704 5703 5702 5702 5702 5703 5705 5706 5710 5711 5711 5710 5709 5708 5708 5709 5709 5710 5711 5711 5711 5711 5711 5711 5711 5711 5711 5712 5712 5712 5713 5713 5713 5713 5713 5713 5713 5713 5713 5713 5713 5714 5714 5714 5714 5715 5715 5715 5715 5716 5715 5715 5715 5715 5715 5715 5715 5714 5713 5713 5712 5711 5712 5711 5710 5710 5711 5715 5717 5713 5710 5709 5709 5709 5709 5708 5707 5705 5703 5701 5700 5698 5698 5698 5698
5696 5697 5700 5700 5697 5697 5697 5697 5698 5701 5703 5706 5708 5708 5707 5706 5705 5705 5705 5706 5707 5707 5708 5708 5708 5708 5709 5708 5708 5708 5709 5709 5709 5710 5711 5711 5710 5710 5710 5710 5710 5709 5710 5710 5711 5710 5711 5711 5711 5712 5712 5712 5712 5712 5712 5712 5712 5712 5712 5712 5711 5710 5709 5708 5707 5708 5707 5707 5708 5708 5710 5712 5709 5707 5707 5706 5706 5706 5706 5704 5702 5700 5698 5696 5694 5694 5694 5694
5691 5692 5695 5694 5692 5692 5692 5691 5694 5696 5698 5702 5704 5704 5703 5703 5703 5702 5701 5702 5703 5703 5705 5705 5705 5705 5705 5706 5706 5705 5706 5706 5707 5707 5708 5709 5707 5707 5707 5707 5706 5706 5706 5707 5707 5707 5707 5707 5708 5709 5709 5708 5709 5709 5709 5709 5709 5708 5708 5708 5707 5706 5705 5703 5703 5704 5704 5704 5705 5705 5707 5708 5706 5705 5704 5703 5704 5704 5703 5702 5699 5697 5695 5692 5691 5690 5690 5691
5685 5687 5688 5688 5687 5687 5685 5686 5689 5692 5695 5698 5699 5699 5699 5699 5700 5699 5698 5698 5698 5699 5700 5701 5702 5702 5702 5703 5703 5702 5703 5703 5704 5705 5705 5706 5705 5704 5704 5703 5703 5703 5703 5703 5703 5703 5702 5703 5704 5705 5705 5705 5705 5705 5705 5705 5705 5703 5704 5704 5703 5702 5701 5699 5699 5699 5699 5702 5703 5701 5703 5705 5704 5703 5702 5702 5702 5702 5700 5699 5696 5694 5692 5690 5688 5688 5688 5687
5679 5680 5681 5681 5682 5681 5679 5682 5686 5689 5690 5691 5692 5693 5694 5694 5696 5696 5695 5694 5695 5695 5696 5697 5698 5698 5699 5699 5699 5700 5700 5700 5701 5702 5702 5703 5702 5701 5700 5700 5700 5699 5699 5699 5700 5699 5698 5699 5700 5701 5701 5702 5702 5702 5702 5701 5700 5699 5700 5700 5698 5698 5697 5695 5695 5694 5695 5700 5699 5695 5700 5704 5701 5699 5700 5700 5699 5699 5697 5694 5691 5690 5689 5688 5686 5685 5684 5683
5672 5672 5673 5674 5675 5675 5675 5679 5682 5683 5684 5686 5687 5688 5688 5689 5692 5693 5692 5691 5691 5691 5692 5693 5694 5694 5695 5695 5696 5696 5696 5696 5697 5698 5699 5700 5699 5697 5696 5696 5695 5695 5695 5695 5695 5695 5694 5695 5697 5697 5697 5698 5699 5699 5698 5696 5695 5695 5696 5696 5694 5694 5693 5692 5691 5689 5692 5696 5694 5691 5696 5701 5700 5697 5697 5698 5697 5695 5694 5690 5686 5685 5685 5683 5682 5680 5679 5678
5664 5664 5666 5668 5670 5670 5671 5674 5675 5676 5679 5681 5681 5682 5683 5685 5687 5688 5687 5687 5687 5687 5688 5689 5690 5690 5691 5691 5692 5692 5692 5692 5692 5693 5696 5696 5695 5694 5693 5692 5691 5692 5691 5691 5691 5691 5690 5691 5694 5693 5693 5695 5696 5695 5693 5692 5691 5690 5691 5691 5690 5689 5689 5687 5686 5686 5690 5689 5686 5688 5693 5693 5695 5696 5695 5695 5693 5689 5687 5685 5683 5682 5680 5678 5677 5676 5675 5674
5656 5657 5659 5662 5663 5663 5665 5668 5669 5672 5675 5676 5674 5675 5678 5679 5680 5681 5681 5683 5684 5683 5683 5683 5685 5686 5687 5688 5687 5686 5686 5687 5687 5689 5691 5691 5690 5689 5688 5687 5688 5688 5688 5688 5687 5686 5686 5688 5690 5689 5689 5691 5691 5689 5688 5687 5687 5686 5686 5686 5685 5685 5684 5683 5683 5685 5686 5681 5679 5687 5688 5682 5685 5692 5692 5690 5687 5681 5679 5679 5678 5677 5675 5673 5672 5671 5671 5670
5649 5650 5653 5655 5655 5656 5659 5663 5666 5667 5668 5667 5667 5668 5670 5672 5673 5675 5677 5678 5678 5678 5678 5679 5681 5683 5683 5683 5681 5680 5681 5682 5684 5686 5686 5685 5683 5682 5682 5684 5684 5684 5684 5683 5683 5682 5681 5684 5686 5685 5684 5687 5686 5684 5683 5682 5681 5681 5681 5681 5682 5681 5679 5679 5680 5681 5680 5675 5676 5682 5681 5675 5679 5685 5685 5682 5678 5675 5675 5674 5672 5671 5670 5669 5667 5666 5666 5666
5640 5643 5645 5647 5648 5650 5653 5657 5659 5659 5659 5659 5659 5660 5662 5665 5667 5670 5672 5671 5672 5674 5674 5674 5678 5680 5678 5677 5676 5674 5675 5678 5680 5681 5680 5677 5676 5676 5678 5679 5679 5679 5679 5678 5679 5678 5676 5678 5682 5679 5678 5682 5682 5679 5677 5677 5675 5674 5675 5675 5677 5676 5675 5675 5676 5676 5674 5671 5673 5676 5673 5670 5675 5678 5676 5674 5672 5671 5671 5669 5667 5666 5666 5664 5662 5662 5662 5662
5633 5636 5638 5640 5642 5644 5646 5648 5650 5651 5652 5652 5651 5652 5655 5658 5662 5665 5667 5666 5667 5669 5668 5669 5674 5675 5671 5670 5668 5667 5671 5676 5676 5675 5672 5670 5670 5672 5672 5673 5673 5674 5674 5674 5674 5672 5671 5672 5675 5674 5672 5675 5677 5675 5672 5670 5668 5667 5667 5670 5672 5672 5670 5670 5671 5672 5669 5667 5670 5670 5665 5666 5673 5673 5669 5668 5669 5667 5664 5662 5662 5663 5661 5659 5658 5658 5657 5657
5625 5627 5629 5631 5633 5636 5638 5640 5642 5642 5643 5642 5643 5646 5650 5653 5657 5660 5661 5660 5660 5661 5663 5665 5667 5666 5663 5662 5662 5664 5670 5671 5668 5666 5664 5662 5664 5666 5667 5668 5669 5669 5669 5669 5668 5667 5667 5666 5669 5669 5664 5666 5672 5670 5665 5664 5660 5655 5658 5666 5670 5668 5665 5665 5667 5667 5665 5663 5664 5662 5659 5663 5668 5667 5664 5664 5663 5661 5658 5656 5658 5659 5657 5654 5653 5653 5652 5651
5617 5618 5620 5622 5624 5627 5629 5631 5632 5632 5632 5635 5638 5641 5644 5648 5651 5652 5651 5652 5654 5656 5658 5659 5659 5657 5655 5656 5659 5663 5665 5662 5659 5658 5658 5657 5658 5661 5661 5662 5663 5663 5663 5663 5662 5662 5662 5660 5663 5662 5656 5658 5666 5664 5660 5657 5647 5643 5655 5666 5665 5661 5661 5661 5661 5662 5661 5659 5656 5655 5657 5660 5661 5661 5660 5659 5656 5654 5652 5652 5654 5654 5652 5650 5649 5648 5647 5646